KISSLEGG Weather Reports


Display with metric or nautical units.
time (UTC)temp
F
wind
direction
speed
MPH
gust
MPH
rain 1hr
in
rain 24hr
in
rain mn
in
humidity
%
barometer
mb
20260506123210 61 161 0.0 0.0 0.00 0.00 0.00 65 1005.4
20260506120210 61 125 0.0 0.0 0.00 0.00 0.00 61 1005.0
20260506113217 60 117 0.0 0.0 0.00 0.00 0.00 64 1004.9
20260506110210 61 252 0.0 0.0 0.00 0.00 0.00 71 1005.3
20260506100213 58 69 0.0 0.0 0.00 0.00 0.00 72 1005.5
20260506093211 58 321 0.0 0.0 0.00 0.00 0.00 75 1005.5
20260506090211 58 279 0.0 0.0 0.00 0.00 0.00 77 1006.0
20260506083211 56 355 0.0 0.0 0.00 0.00 0.00 82 1005.9
20260506080212 54 351 0.0 0.0 0.00 0.00 0.00 86 1005.8
20260506073211 53 355 0.0 0.0 0.00 0.00 0.00 91 1006.0
20260506070212 52 40 0.0 0.0 0.00 0.00 0.00 91 1005.9
20260506060210 50 163 0.0 0.0 0.00 0.00 0.00 93 1006.1
20260506050211 48 163 0.0 0.0 0.00 0.00 0.00 94 1006.4
20260506043211 47 163 0.0 0.0 0.00 0.00 0.00 93 1006.5
20260506040211 47 163 0.0 0.0 0.00 0.00 0.00 93 1007.0
20260506033211 48 163 0.0 0.0 0.00 0.00 0.00 93 1007.1
20260506030212 48 163 0.0 0.0 0.00 0.00 0.00 93 1007.5
20260506023211 48 163 0.0 0.0 0.00 0.00 0.00 94 1007.6
20260506020212 48 163 0.0 0.0 0.00 0.00 0.00 94 1007.9
20260506013211 49 217 0.0 0.0 0.00 0.00 0.00 95 1007.9
20260506010213 49 217 0.0 0.0 0.00 0.00 0.00 95 1008.2
20260506003209 49 360 0.0 0.0 0.00 0.00 0.00 95 1008.4
20260506000211 49 246 0.0 0.0 0.00 0.00 0.00 95 1008.3
20260505233209 49 247 0.0 0.0 0.00 0.00 0.00 95 1008.7
20260505230209 49 242 0.0 0.0 0.00 0.00 0.00 95 1008.6
20260505223210 50 360 0.0 0.0 0.00 0.00 0.00 95 1008.9
20260505220209 50 360 0.0 0.0 0.00 0.00 0.00 94 1008.8
20260505213211 50 360 0.0 0.0 0.00 0.00 0.03 94 1008.8
20260505210215 51 360 0.0 0.0 0.00 0.00 0.03 94 1008.9
20260505203209 51 207 0.0 0.0 0.00 0.00 0.03 93 1008.9
20260505200210 51 210 0.0 0.0 0.00 0.00 0.03 92 1009.2
20260505193209 52 360 0.0 0.0 0.00 0.00 0.03 90 1008.9
20260505190215 54 360 0.0 0.0 0.00 0.00 0.00 84 1008.2
20260505183212 57 360 0.0 0.0 0.00 0.00 0.00 84 1007.8
20260505180211 58 360 0.0 0.0 0.00 0.00 0.00 87 1007.1
20260505173210 58 360 0.0 0.0 0.00 0.00 0.00 88 1007.0
20260505170210 59 360 0.0 0.0 0.00 0.00 0.00 86 1006.7
20260505163211 59 360 0.0 0.0 0.00 0.00 0.00 83 1006.5
20260505153210 60 360 0.0 0.0 0.00 0.00 0.00 79 1006.5
20260505150216 62 360 0.0 0.0 0.00 0.00 0.00 72 1006.6
20260505140210 62 350 0.0 0.0 0.00 0.00 0.00 69 1006.3
20260505130210 62 269 0.0 0.0 0.00 0.00 0.00 74 1006.6